Check out our new BloomSky Weather System.

Active alerts

Houston, TX
  Details for Houston, TX Dense Fog Advisory


Thunder radar  blitzortung!


Rain radar more information rain snow radar


Visit our other weather sites:

Template documentation
and downloads

And another site



Weather Underground History page Text

Daily Summary for January 25, 2017 Units:  English    Metric   Both
« Previous Day
Next Day »
Daily Weekly Monthly Yearly Custom
  High: Low: Average:
Temperature: 66.6 °F 54.3 °F 59.8 °F
Dew Point: 40.3 °F 35.1 °F 38.1 °F
Humidity: 50 % 31 % 45 %
Wind Speed: 12.0 mph 2.0 mph 4.9 mph
Wind Gust: 15.0 mph - -
Wind:- - WNW
Pressure: 30.10 in 29.90 in -
Precipitation: 0.00 in    
Historical Graphs
 
 
Tabular Data for January 25, 2017
Time Temperature Dew Point Pressure Wind Wind Speed Wind Gust Humidity Rainfall Rate (Hourly)
11:14 66.6 °F 35.1 °F 29.90 in NW 12.0 mph 12.0 mph 31 % 0.00 in
11:15 66.4 °F 35.6 °F 29.91 in NW 8.0 mph 12.0 mph 32 % 0.00 in
11:16 66.2 °F 35.4 °F 29.91 in NNW 4.0 mph 15.0 mph 32 % 0.00 in
17:17 66.2 °F 35.4 °F 29.91 in West 7.0 mph 15.0 mph 32 % 0.00 in
17:22 66.0 °F 36.1 °F 29.91 in NW 3.0 mph 12.0 mph 33 % 0.00 in
17:27 65.7 °F 35.8 °F 29.91 in NNW 4.0 mph 12.0 mph 33 % 0.00 in
17:32 65.5 °F 36.3 °F 29.92 in NNW 6.0 mph 12.0 mph 34 % 0.00 in
17:37 65.1 °F 36.9 °F 29.92 in NNW 3.0 mph 12.0 mph 35 % 0.00 in
17:42 64.9 °F 37.4 °F 29.93 in NW 2.0 mph 10.0 mph 36 % 0.00 in
17:47 64.8 °F 37.9 °F 29.93 in NW 3.0 mph 10.0 mph 37 % 0.00 in
17:52 64.6 °F 39.7 °F 29.93 in NW 6.0 mph 11.0 mph 40 % 0.00 in
17:54 64.2 °F 40.1 °F 29.94 in NW 6.0 mph 11.0 mph 41 % 0.00 in
17:59 64.0 °F 39.9 °F 29.93 in WNW 6.0 mph 11.0 mph 41 % 0.00 in
18:04 63.7 °F 40.1 °F 29.94 in WNW 9.0 mph 11.0 mph 42 % 0.00 in
18:09 63.5 °F 39.9 °F 29.94 in NW 6.0 mph 12.0 mph 42 % 0.00 in
18:14 63.3 °F 39.9 °F 29.94 in NNE 8.0 mph 12.0 mph 42 % 0.00 in
18:19 63.1 °F 40.3 °F 29.95 in NNW 4.0 mph 14.0 mph 43 % 0.00 in
18:24 63.0 °F 39.6 °F 29.95 in NW 5.0 mph 14.0 mph 42 % 0.00 in
18:29 62.8 °F 39.4 °F 29.96 in NNW 4.0 mph 14.0 mph 42 % 0.00 in
18:34 62.6 °F 39.2 °F 29.96 in NNW 8.0 mph 14.0 mph 42 % 0.00 in
18:39 62.4 °F 39.0 °F 29.95 in NNW 3.0 mph 14.0 mph 42 % 0.00 in
18:44 62.4 °F 38.5 °F 29.96 in NW 6.0 mph 13.0 mph 41 % 0.00 in
18:49 62.4 °F 38.5 °F 29.96 in NNW 5.0 mph 13.0 mph 41 % 0.00 in
18:54 62.2 °F 38.3 °F 29.96 in WNW 8.0 mph 13.0 mph 41 % 0.00 in
18:59 62.2 °F 38.3 °F 29.96 in NW 4.0 mph 12.0 mph 41 % 0.00 in
19:05 61.9 °F 37.9 °F 29.96 in NW 4.0 mph 13.0 mph 41 % 0.00 in
19:10 61.9 °F 38.5 °F 29.97 in NNW 5.0 mph 13.0 mph 42 % 0.00 in
19:15 61.7 °F 38.3 °F 29.98 in West 5.0 mph 13.0 mph 42 % 0.00 in
19:20 61.5 °F 38.8 °F 29.98 in NNW 5.0 mph 12.0 mph 43 % 0.00 in
19:25 61.3 °F 38.7 °F 29.98 in NW 4.0 mph 12.0 mph 43 % 0.00 in
19:30 61.2 °F 39.0 °F 29.99 in NW 2.0 mph 9.0 mph 44 % 0.00 in
19:35 61.0 °F 38.8 °F 29.99 in WNW 5.0 mph 9.0 mph 44 % 0.00 in
19:40 60.8 °F 39.4 °F 29.98 in WNW 4.0 mph 8.0 mph 45 % 0.00 in
19:45 60.6 °F 39.2 °F 29.99 in NNW 2.0 mph 8.0 mph 45 % 0.00 in
19:50 60.4 °F 39.0 °F 29.99 in NW 2.0 mph 11.0 mph 45 % 0.00 in
19:55 60.3 °F 38.8 °F 29.99 in NNW 3.0 mph 11.0 mph 45 % 0.00 in
20:00 60.3 °F 38.8 °F 30.00 in NW 6.0 mph 11.0 mph 45 % 0.00 in
20:05 60.1 °F 38.7 °F 30.00 in NNW 6.0 mph 14.0 mph 45 % 0.00 in
20:10 59.9 °F 38.5 °F 30.00 in NW 4.0 mph 14.0 mph 45 % 0.00 in
20:15 59.7 °F 38.8 °F 30.00 in NW 2.0 mph 14.0 mph 46 % 0.00 in
20:20 59.5 °F 39.4 °F 30.00 in NNW 7.0 mph 12.0 mph 47 % 0.00 in
20:25 59.4 °F 38.7 °F 30.01 in NW 6.0 mph 9.0 mph 46 % 0.00 in
20:30 59.4 °F 38.7 °F 30.01 in NNW 6.0 mph 12.0 mph 46 % 0.00 in
20:35 59.4 °F 39.2 °F 30.01 in NNW 3.0 mph 12.0 mph 47 % 0.00 in
20:40 59.2 °F 39.0 °F 30.01 in NW 6.0 mph 12.0 mph 47 % 0.00 in
20:45 59.0 °F 39.4 °F 30.01 in NW 3.0 mph 10.0 mph 48 % 0.00 in
20:50 58.8 °F 39.7 °F 30.02 in NW 3.0 mph 10.0 mph 49 % 0.00 in
20:55 58.6 °F 39.6 °F 30.02 in WNW 2.0 mph 8.0 mph 49 % 0.00 in
21:00 58.5 °F 39.4 °F 30.02 in North 3.0 mph 8.0 mph 49 % 0.00 in
21:05 58.5 °F 39.9 °F 30.03 in NW 2.0 mph 7.0 mph 50 % 0.00 in
21:10 58.3 °F 39.7 °F 30.03 in NNW 5.0 mph 10.0 mph 50 % 0.00 in
21:15 58.3 °F 39.7 °F 30.04 in NW 2.0 mph 10.0 mph 50 % 0.00 in
21:20 58.1 °F 39.6 °F 30.04 in NW 4.0 mph 10.0 mph 50 % 0.00 in
21:25 58.1 °F 39.6 °F 30.04 in NNW 5.0 mph 10.0 mph 50 % 0.00 in
21:30 57.9 °F 39.4 °F 30.04 in WNW 3.0 mph 10.0 mph 50 % 0.00 in
21:35 57.7 °F 39.2 °F 30.04 in NW 4.0 mph 10.0 mph 50 % 0.00 in
21:40 57.7 °F 39.2 °F 30.04 in NW 4.0 mph 10.0 mph 50 % 0.00 in
21:45 57.6 °F 39.0 °F 30.04 in NW 3.0 mph 9.0 mph 50 % 0.00 in
21:50 57.4 °F 38.8 °F 30.04 in NW 5.0 mph 7.0 mph 50 % 0.00 in
21:55 57.2 °F 38.7 °F 30.04 in NW 7.0 mph 8.0 mph 50 % 0.00 in
22:00 57.0 °F 38.5 °F 30.05 in WNW 8.0 mph 8.0 mph 50 % 0.00 in
22:05 57.0 °F 38.5 °F 30.05 in NW 3.0 mph 10.0 mph 50 % 0.00 in
22:11 56.8 °F 37.9 °F 30.05 in WNW 2.0 mph 10.0 mph 49 % 0.00 in
22:16 56.8 °F 37.9 °F 30.06 in NNW 3.0 mph 10.0 mph 49 % 0.00 in
22:21 56.7 °F 37.8 °F 30.06 in NNW 5.0 mph 8.0 mph 49 % 0.00 in
22:26 56.7 °F 37.8 °F 30.06 in NW 6.0 mph 10.0 mph 49 % 0.00 in
22:31 56.5 °F 37.6 °F 30.06 in NW 9.0 mph 10.0 mph 49 % 0.00 in
22:36 56.5 °F 37.6 °F 30.06 in NW 4.0 mph 14.0 mph 49 % 0.00 in
22:41 56.3 °F 37.4 °F 30.07 in NW 5.0 mph 14.0 mph 49 % 0.00 in
22:46 56.1 °F 37.2 °F 30.07 in North 4.0 mph 14.0 mph 49 % 0.00 in
22:51 56.1 °F 36.7 °F 30.07 in NNW 5.0 mph 9.0 mph 48 % 0.00 in
22:56 55.9 °F 36.5 °F 30.07 in NNW 8.0 mph 12.0 mph 48 % 0.00 in
23:01 55.8 °F 36.3 °F 30.08 in NW 5.0 mph 13.0 mph 48 % 0.00 in
23:06 55.6 °F 36.1 °F 30.08 in NNW 5.0 mph 13.0 mph 48 % 0.00 in
23:11 55.6 °F 36.1 °F 30.08 in WSW 9.0 mph 14.0 mph 48 % 0.00 in
23:16 55.2 °F 36.0 °F 30.08 in WNW 4.0 mph 14.0 mph 48 % 0.00 in
23:21 55.2 °F 36.3 °F 30.08 in West 6.0 mph 14.0 mph 49 % 0.00 in
23:26 55.0 °F 36.1 °F 30.09 in NNW 7.0 mph 12.0 mph 49 % 0.00 in
23:31 54.9 °F 36.1 °F 30.09 in North 4.0 mph 11.0 mph 49 % 0.00 in
23:36 54.9 °F 36.5 °F 30.09 in NW 3.0 mph 9.0 mph 50 % 0.00 in
23:41 54.7 °F 36.3 °F 30.09 in NNW 6.0 mph 10.0 mph 50 % 0.00 in
23:46 54.7 °F 36.0 °F 30.09 in NW 4.0 mph 12.0 mph 49 % 0.00 in
23:51 54.5 °F 36.3 °F 30.10 in NW 7.0 mph 12.0 mph 50 % 0.00 in
23:56 54.3 °F 35.1 °F 30.10 in NNW 7.0 mph 14.0 mph 48 % 0.00 in
Spring, Texas: Villages of Bridgestone
Compliments of Weather Underground - 1.75 mb

Script developed by  Jim McMurry - jmcmurry@mwt.net Adapted for the template by  Wim van der Kuil - Leuven-Template.eu

You find our weather info also at:

UK Metoffice

WeatherCloud

Weather Underground

Mid-South Weather Network

AWEKAS

Citizen Weather Observer Program (CWOP)

HAMweather, WeatherForYou, PWS Weather

Equipment we use:

Weather-station
Davis Vantage Vue

Weather-program
Meteohub

Weather-server
Debian 7.9 x86 (Guest)

Provider
DreamHost

Davis Vantage Vue

Meteohub

Debian 7.9 x86 (Guest)

DreamHost